Regional Weather Roundup
Issued by NWS Albany, NY

Home | Current Version | Previous Version | Text Only | Print | Product List | Glossary On
Versions: 1 2 3 4 5 6 7 8 9 10 11 12 13 14 15 16 17 18 19 20 21 22 23 24 25 26 27 28
000
ASUS41 KALY 290810
RWRALY

NEW YORK STATE HOURLY WEATHER ROUNDUP
NATIONAL WEATHER SERVICE ALBANY NY
400 AM EDT MON MAY 29 2017

NOTE: "FAIR" INDICATES FEW OR NO CLOUDS BELOW 12,000 FEET WITH NO
SIGNIFICANT WEATHER AND/OR NO OBSTRUCTIONS TO VISIBILITY.

NYZ032-033-038>043-046>054-057>066-NYZ062>081-082-084-290900-
EAST


CITY           SKY/WX    TMP DP  RH WIND       PRES   REMARKS
ALBANY         MOCLDY    56  47  71 SE8       29.89S
GLENS FALLS    CLOUDY    60  49  66 S6        29.89S
POUGHKEEPSIE   CLOUDY    57  50  77 VRB3      29.88F
NEWBURGH       MOCLDY    57  52  82 E7        29.90F
MONTGOMERY     CLOUDY    57  51  80 NE5       29.88F
WHITE PLAINS   PTCLDY    56  51  84 E9        29.87F
ISLIP          CLOUDY    57  54  89 E8        29.88F
NEW YORK CITY  LGT RAIN  59  54  83 E9        29.87F
CENTRAL PARK   CLOUDY    58  54  86 E7        29.90F
$$

NYZ005>009-017-018-044>046-055-056-290900-
CENTRAL


CITY           SKY/WX    TMP DP  RH WIND       PRES   REMARKS
FULTON         CLOUDY    62  59  90 VRB7      29.75R
SYRACUSE       LGT RAIN  60  59  96 E7        29.76S
ROME           CLOUDY    62  54  74 SE13      29.80R
ELMIRA         LGT RAIN  63  59  87 S3        29.77R
BINGHAMTON     LGT RAIN  52  51  97 SE12      29.82R
MONTICELLO     PTCLDY    52  52 100 E7        29.89F
$$

NYZ026>034-041>043-087-290900-
NORTH


CITY           SKY/WX    TMP DP  RH WIND       PRES   REMARKS
WATERTOWN      CLOUDY    65  56  72 SE6       29.73S
FORT DRUM      NOT AVBL
OGDENSBURG     MOCLDY    65  57  73 CALM      29.75S
MASSENA        CLOUDY    65  57  75 SE7       29.77F
SARANAC LAKE   CLOUDY    56  53  90 CALM      29.81F
PLATTSBURGH    CLOUDY    59  54  83 S10       29.83F
$$

NYZ001>004-010>016-019>021-085-290900-
WEST


CITY           SKY/WX    TMP DP  RH WIND       PRES   REMARKS
NIAGARA FALLS  LGT RAIN  64  59  83 S6        29.70R
BUFFALO        LGT RAIN  64  60  87 SW9       29.71R
DUNKIRK        CLOUDY    64  59  83 SW9       29.72R
JAMESTOWN      CLOUDY    59  55  88 SW9       29.76S
WELLSVILLE     CLOUDY    61  56  83 S7        29.78R
ROCHESTER      LGT RAIN  66  59  78 S7        29.72R
PENN YAN       CLOUDY    64  58  80 SE5       29.75R
$$

             KEY
       WCI = WIND CHILL INDEX
       VSB = VISIBILITY
       HX  = HEAT INDEX
$$




USA.gov is the U.S. government's official web portal to all federal, state and local government web resources and services.